SCP
0 0 0 0 0 0 0 0 0 0 0 0 0 0 0 0 0 0 0 0 1 1 1 1 1 2 2 2 1 1 1 1 0 -0 -0 -0 -1 -1 -1 -1 -0 -0 -0 -0 -0 -0 -0 -1 -0
0 0 0 0 0 0 0 0 0 0 0 0 0 0 0 0 0 1 2 1 1 1 1 1 1 1 1 2 1 1 2 1 1 0 0 -0 -0 -1 -1 -0 -0 -0 -0 -0 -0 -0 -0 -0 -0
0 0 0 0 0 0 0 0 0 0 0 0 0 0 0 0 1 2 1 1 1 1 1 0 1 1 1 1 1 1 2 1 1 1 0 -0 -0 -1 -1 -0 -0 -0 -0 -0 -0 -0 -0 -0 -0
0 0 0 0 0 0 0 0 0 0 0 0 0 0 0 0 1 1 2 2 1 1 0 0 0 1 1 1 1 1 1 1 1 1 0 -0 -0 -1 -1 -0 -0 -0 -0 -0 -0 -0 -0 -0 -0
0 0 0 0 0 0 0 0 0 0 0 0 0 0 0 0 1 3 3 2 1 0 0 0 0 0 1 1 1 1 1 1 1 1 0 0 -0 -1 -0 -0 -0 -0 -0 -0 -0 -0 -0 -0 -0
0 0 0 0 0 0 0 0 0 0 0 0 0 0 0 0 4 4 3 2 1 0 0 0 0 0 1 1 1 1 1 1 1 1 1 0 0 -0 -0 -0 -0 -0 -0 -0 -0 -0 -0 -0 -0
0 0 0 0 0 0 0 0 0 0 0 0 0 0 0 2 4 5 2 2 1 0 0 0 0 1 1 1 0 1 1 1 1 1 1 1 0 -0 -0 -0 0 -0 -0 -0 -0 -0 -0 -0 -0
0 0 0 0 0 -0 0 0 0 0 0 0 0 0 0 0 3 5 3 2 1 0 0 0 0 1 1 0 0 1 1 1 1 1 1 1 0 0 0 0 0 0 -0 -0 -0 -0 -0 -0 -0
0 0 0 0 0 0 0 0 0 0 0 0 0 0 0 0 6 6 4 3 1 0 0 0 0 1 1 1 1 1 1 1 1 1 1 1 1 0 0 0 0 0 0 -0 -0 -0 -0 -0 -0
0 0 0 0 0 0 0 0 0 0 0 0 0 0 0 2 7 5 3 1 0 0 0 0 0 0 1 1 1 1 1 2 2 1 1 1 1 0 0 0 0 0 0 0 0 -0 -0 -0 0
0 0 0 0 0 0 0 0 0 0 0 0 0 0 0 1 3 3 2 2 0 1 1 0 0 0 1 2 2 2 2 2 2 1 1 1 1 1 1 1 0 0 0 0 0 0 0 0 0
0 0 0 0 0 0 0 0 0 0 0 0 0 0 0 0 1 2 2 1 1 1 1 0 0 0 1 3 3 2 3 2 2 2 2 2 2 1 1 1 0 0 0 0 0 0 0 0 0
0 0 0 0 0 0 0 0 0 0 0 0 -0 0 0 0 0 1 1 1 1 2 1 0 1 1 1 2 4 4 3 3 3 2 2 2 2 2 1 1 0 0 0 0 0 0 0 0 0
0 0 0 0 0 0 0 0 0 0 0 0 -0 0 0 0 0 0 0 0 1 1 1 1 1 1 1 2 2 4 4 3 3 3 2 2 1 1 1 1 1 0 0 0 0 0 0 0 0
0 0 0 0 0 0 0 0 0 0 0 0 0 0 0 0 0 0 0 0 0 2 2 1 1 2 1 2 2 4 5 5 5 3 2 2 1 1 1 1 0 0 0 0 0 0 0 0 0
0 0 0 0 0 0 0 0 0 0 0 0 0 0 0 0 0 0 0 0 0 0 2 1 2 2 2 2 3 3 5 6 5 5 4 2 1 1 1 0 0 0 0 0 0 0 0 0 0
0 0 0 0 0 0 0 0 0 0 0 0 0 0 0 0 0 0 0 0 0 0 0 1 2 3 2 2 3 3 3 6 5 5 4 2 2 1 0 0 0 0 0 0 0 0 0 0 0
0 0 0 0 0 0 0 0 0 0 0 0 0 0 0 0 0 0 0 0 0 0 0 1 3 3 2 3 3 4 4 5 6 5 4 3 3 1 0 0 0 0 0 0 0 0 0 0 0
0 0 0 0 0 0 0 0 0 0 0 0 0 0 0 0 0 0 0 0 0 0 0 0 2 3 4 3 4 4 4 4 5 5 3 3 3 1 0 0 0 0 0 0 0 0 0 0 0
0 0 0 0 0 0 0 0 0 0 0 0 0 0 0 0 0 0 0 0 0 0 0 0 1 3 4 4 3 4 4 4 4 5 4 3 2 1 1 0 0 0 0 0 0 0 0 0 0
0 0 0 0 0 0 0 0 0 0 0 0 0 0 0 0 0 0 0 0 0 0 0 1 1 2 3 3 4 4 4 5 5 5 5 4 3 1 1 0 0 0 0 0 0 0 0 0 0
0 0 0 0 0 0 0 0 0 0 0 0 0 0 0 0 0 0 0 0 0 0 0 1 2 2 3 4 4 4 6 4 5 6 5 4 3 1 1 0 0 0 0 0 0 0 0 0 0
0 0 0 0 0 0 0 0 0 0 0 0 0 0 0 0 0 0 0 0 0 0 0 1 2 3 4 5 4 6 5 4 4 5 4 5 4 2 1 0 0 0 0 0 0 0 0 0 0
0 0 -0 0 -0 -0 0 0 0 0 0 0 0 0 0 0 0 0 0 0 0 0 0 0 2 3 4 5 5 5 4 4 5 5 6 6 6 5 1 1 0 0 0 0 0 0 0 0 0
0 0 0 -0 -0 0 0 -0 0 0 0 0 0 0 0 0 0 0 0 0 0 0 0 0 3 3 4 4 5 5 3 3 3 5 6 6 6 5 3 1 0 0 0 0 0 0 0 0 0
0 0 0 0 0 0 0 0 0 0 0 0 0 0 0 0 0 0 0 0 0 0 0 0 0 0 0 1 3 3 2 4 4 4 3 5 5 5 3 2 0 0 0 0 0 0 0 0 0
0 0 0 0 -0 -0 0 0 0 0 0 0 0 0 0 0 0 0 0 0 0 0 0 0 0 0 0 0 0 0 0 2 3 3 3 4 1 1 2 3 0 0 0 0 0 0 0 0 0
-0 0 0 0 0 0 -0 0 0 0 0 0 0 0 0 0 0 0 0 0 0 0 0 0 0 0 0 0 0 0 0 0 0 0 1 1 1 1 1 1 2 0 0 0 0 0 0 0 0
0 -0 0 0 0 0 -0 0 0 0 0 0 0 0 0 0 0 0 0 0 0 0 0 0 0 0 0 0 0 0 0 0 0 0 0 0 0 0 0 1 1 1 0 0 0 0 0 0 0
-0 -0 -0 0 0 0 0 0 0 0 0 0 0 0 0 0 0 0 0 0 0 0 0 0 0 0 0 0 0 0 0 0 0 0 0 0 0 0 0 0 0 0 0 0 0 0 0 0 0
Wind_Speed_500mb
10 7 4 3 7 9 9 15 6 14 9 8 11 11 14 8 9 9 17 23 19 18 17 24 29 46 60 68 69 69 70 64 61 60 58 54 50 46 46 48 45 42 38 35 32 29 28 28 28
12 10 4 6 9 4 11 10 18 16 18 43 24 13 7 14 20 13 30 29 23 15 10 14 23 47 66 74 74 72 69 65 62 61 59 55 51 48 49 49 47 43 39 35 31 31 32 33 34
13 10 6 7 9 14 13 14 20 9 13 33 13 19 12 9 28 12 32 32 25 15 9 11 19 46 73 80 77 73 68 64 63 62 60 58 54 52 51 48 47 44 41 38 34 35 37 37 37
8 7 4 4 18 16 16 13 4 20 43 20 24 11 14 15 10 26 32 30 19 12 6 6 15 45 77 84 80 75 68 64 64 63 62 59 56 55 53 50 47 44 42 41 40 39 41 41 36
13 4 4 8 20 14 11 46 9 12 11 33 34 30 10 17 28 31 36 29 16 6 4 13 12 47 80 86 81 76 69 64 64 63 62 60 58 56 54 51 48 45 43 44 44 43 45 41 36
9 4 1 14 26 17 14 54 12 25 35 44 21 26 16 30 37 36 36 28 17 4 9 9 14 54 80 87 82 77 70 65 63 62 62 61 59 56 54 52 49 46 45 46 46 45 45 39 32
9 4 11 10 8 22 28 20 24 28 24 25 41 10 10 29 43 40 36 28 17 11 6 8 20 59 77 86 83 78 71 65 64 62 62 61 58 56 53 51 48 48 47 47 47 48 44 37 30
11 6 9 12 21 50 45 25 44 23 18 36 21 7 9 45 51 45 38 32 21 18 13 7 20 59 75 86 85 79 73 67 63 62 61 60 58 56 52 50 50 49 49 48 48 48 44 35 30
10 6 35 27 28 41 7 7 17 19 34 38 39 41 40 33 55 54 49 44 36 35 27 20 18 57 73 82 84 79 73 68 64 63 60 59 59 57 54 50 50 50 50 49 49 49 44 39 30
17 11 38 29 31 26 26 22 32 20 28 29 58 60 32 19 65 61 59 55 49 42 35 33 36 54 72 80 83 79 74 71 69 68 66 64 62 58 54 50 49 49 51 51 51 51 48 42 36
17 50 53 46 40 50 50 45 55 38 39 54 44 63 36 35 55 57 51 47 41 42 40 41 42 62 77 86 87 84 81 78 76 73 71 68 65 65 61 54 53 52 53 55 55 58 54 46 39
29 59 61 68 62 56 37 58 39 51 60 76 82 80 74 49 56 57 58 48 48 42 43 45 50 59 75 86 92 93 90 88 85 81 79 77 75 72 67 60 55 54 55 57 58 60 58 51 43
41 49 70 75 73 75 67 60 68 93 75 85 101 77 71 68 72 70 63 57 54 52 48 51 57 60 72 85 94 98 97 94 92 88 86 83 82 75 69 65 61 61 59 59 61 62 62 58 51
17 51 62 69 71 69 52 62 60 98 71 89 96 84 73 70 71 65 55 59 62 55 55 57 62 66 74 81 94 101 102 100 97 95 94 89 84 82 80 75 72 68 63 62 61 63 65 63 56
58 45 49 59 49 46 43 62 76 75 56 79 83 73 72 72 70 69 64 60 58 63 64 68 70 74 81 83 89 102 107 106 105 103 99 95 92 90 86 82 81 76 64 61 64 65 66 66 62
33 32 38 35 35 36 44 63 107 49 66 85 90 86 84 98 95 94 89 81 78 77 79 79 83 86 85 89 95 103 109 111 110 108 106 100 99 96 93 91 90 81 71 64 67 67 70 70 69
35 51 56 67 60 17 39 62 90 57 56 63 86 88 87 89 91 98 93 97 86 76 84 85 85 94 100 94 99 102 109 113 112 109 108 105 104 102 99 97 94 85 73 73 71 73 73 75 75
51 40 39 59 75 38 66 63 74 47 41 64 71 67 58 66 73 82 87 93 87 88 84 82 86 97 103 101 106 104 101 105 111 109 110 108 107 105 102 100 97 89 84 80 76 77 76 76 77
63 59 62 60 42 37 73 49 73 56 55 51 66 63 68 70 72 92 97 107 101 94 95 89 93 98 103 114 105 106 102 99 104 109 106 107 105 105 102 104 101 95 93 87 82 79 79 80 81
68 79 79 57 54 41 49 54 72 58 58 66 70 84 73 76 75 96 101 95 87 75 83 84 85 95 100 109 112 111 109 106 102 104 104 107 103 107 104 105 107 102 97 92 90 86 88 88 89
57 71 68 68 45 56 53 65 77 65 56 71 78 83 84 80 76 89 86 82 79 65 68 79 87 94 97 104 108 99 97 91 95 100 103 102 106 107 102 104 103 103 102 101 98 96 96 99 95
67 58 54 72 63 59 51 43 69 50 48 47 50 72 82 83 82 92 93 88 83 65 60 76 89 93 96 107 111 103 100 91 93 100 101 102 107 104 101 104 103 100 103 103 100 99 100 99 102
80 46 42 37 42 28 28 26 50 12 46 46 39 58 84 100 87 85 79 72 74 72 63 67 90 91 99 110 112 112 102 98 90 98 95 103 100 92 100 105 102 100 99 103 102 100 102 101 104
57 54 45 43 29 33 34 8 31 26 23 26 25 13 15 30 43 72 72 74 67 67 65 70 76 86 97 102 110 113 110 100 93 93 96 97 98 96 107 101 104 102 99 102 100 94 92 100 103
33 28 22 27 19 27 24 22 32 14 32 21 27 32 44 47 27 21 24 24 31 37 49 59 69 78 84 87 92 100 92 87 88 91 89 94 92 95 103 99 104 105 103 106 103 95 94 96 99
29 39 21 26 9 6 14 16 3 15 30 47 47 47 55 58 54 63 59 55 49 46 50 62 64 76 73 79 91 93 87 85 85 82 78 84 88 85 95 100 105 108 102 104 104 102 101 97 101
12 18 35 35 50 13 6 7 12 36 27 30 35 49 53 50 52 62 71 75 73 72 64 59 54 56 61 74 84 85 86 84 85 87 89 79 65 66 95 101 101 106 105 108 111 114 108 105 103
15 13 12 14 11 16 10 5 8 16 23 23 34 33 42 43 47 63 72 75 72 71 68 65 60 57 51 43 47 60 81 81 80 81 84 78 73 85 91 90 91 103 102 106 113 115 111 110 108
8 10 12 4 7 7 5 4 12 15 15 19 26 40 44 50 44 53 67 71 70 68 68 65 63 55 50 44 44 36 33 46 74 75 73 80 82 78 78 80 89 86 79 98 108 112 112 113 111
8 15 7 9 6 5 4 5 6 9 13 15 24 46 60 56 55 44 63 68 72 70 67 65 58 58 55 47 40 37 38 35 38 42 44 54 67 66 67 72 88 86 92 80 95 106 115 118 115
Wind_Direction_500mb
250 266 279 304 48 67 267 258 258 279 307 267 204 180 198 199 164 213 164 170 178 181 189 186 190 199 199 191 189 185 181 176 170 167 167 164 161 157 153 150 147 144 141 139 136 133 133 133 135
256 266 239 125 108 147 255 232 232 225 250 319 278 239 219 226 194 193 182 186 185 201 199 220 211 199 198 192 189 185 182 178 175 171 169 167 164 161 157 154 150 146 141 140 138 138 135 135 135
265 264 261 145 158 209 219 215 235 249 288 301 279 256 244 202 204 219 193 200 189 200 219 226 228 204 195 191 188 185 183 181 178 174 171 169 167 165 161 158 153 149 144 143 141 143 139 140 136
248 237 234 148 223 252 211 239 194 330 314 299 294 274 239 211 214 197 191 194 203 206 241 321 267 202 190 188 187 185 184 182 179 175 171 170 169 167 164 161 157 152 148 145 146 147 144 143 137
230 230 227 255 253 261 255 258 287 273 273 287 290 256 224 215 191 191 192 196 195 196 349 353 258 192 184 186 186 185 184 183 180 176 173 172 171 169 166 165 160 155 152 151 149 149 150 150 143
232 171 169 243 245 260 264 259 265 254 278 282 291 246 224 196 199 197 193 187 166 109 16 352 215 187 183 185 187 186 184 183 181 179 176 174 173 172 170 168 163 158 156 155 153 152 154 157 150
181 108 228 233 256 268 251 258 228 252 268 274 298 242 268 199 201 196 186 183 172 140 58 13 200 185 183 187 187 186 186 184 184 183 180 177 176 175 173 171 167 162 160 158 158 156 160 163 159
217 139 256 219 242 268 265 251 253 245 269 284 292 259 240 216 194 185 185 181 181 169 154 84 190 185 184 188 189 188 188 187 186 186 184 182 180 178 177 175 170 165 161 161 162 162 165 168 165
208 227 253 232 226 237 122 262 252 253 264 274 277 285 295 281 196 188 186 186 186 181 172 158 176 189 188 189 191 191 191 191 189 190 189 186 185 183 182 179 173 167 164 165 166 168 170 177 173
183 221 250 224 234 250 259 263 277 277 276 278 281 275 279 259 197 192 191 191 192 192 186 179 180 192 192 190 192 193 193 194 194 194 193 193 191 188 187 182 176 171 167 169 170 173 178 186 181
209 235 241 251 249 250 261 269 261 268 269 266 265 274 263 242 209 209 210 221 242 215 199 193 190 193 196 194 194 196 196 197 198 198 198 197 196 193 192 187 179 176 173 172 174 177 186 191 190
253 249 254 258 257 260 258 269 263 250 256 269 271 267 270 240 226 221 223 233 232 234 231 209 200 197 201 201 199 199 199 200 201 201 202 201 201 199 196 194 185 185 182 179 179 182 187 193 196
232 250 254 261 262 263 269 261 263 257 259 266 268 264 261 257 243 238 237 237 240 227 228 228 214 205 202 206 207 204 204 204 204 204 206 206 206 205 202 201 198 196 190 186 184 184 189 195 200
222 249 258 265 268 268 264 269 259 258 250 258 262 260 255 256 254 247 226 226 226 225 224 229 227 219 209 207 211 212 210 209 208 208 209 209 210 209 207 204 204 201 196 190 190 189 190 197 203
242 254 265 256 258 255 266 275 246 261 254 252 255 255 254 249 247 245 248 247 244 239 243 229 231 226 217 213 213 215 215 214 212 211 212 211 212 213 211 209 211 207 202 197 194 192 190 198 202
261 246 253 265 231 245 202 256 268 239 237 245 248 250 254 259 257 261 258 257 257 259 250 248 240 228 225 219 216 215 216 217 216 216 215 214 216 215 213 214 214 210 204 202 200 197 193 197 201
233 251 245 262 235 234 200 243 264 245 236 243 246 248 246 247 249 257 259 260 261 260 264 257 245 233 224 220 219 218 218 219 218 218 217 217 217 218 216 217 217 214 209 207 206 200 199 196 200
246 246 246 249 257 224 243 241 257 244 221 242 250 251 241 244 251 257 257 260 264 265 261 256 254 238 226 222 219 218 217 218 218 218 221 219 220 219 217 218 220 216 212 211 209 206 201 200 202
250 255 256 249 252 229 250 240 251 244 239 247 254 245 250 253 259 262 262 266 267 256 252 253 252 237 225 218 210 214 212 212 217 222 222 219 222 222 217 219 220 218 216 215 214 209 205 199 203
253 254 255 260 261 232 250 251 253 249 241 242 245 254 251 254 254 260 264 265 264 254 244 253 253 236 225 220 216 219 217 218 220 220 218 220 219 225 221 218 219 219 217 217 216 214 207 204 205
271 250 260 257 255 253 246 257 255 250 248 246 249 250 253 251 253 257 261 264 262 254 246 247 247 231 225 221 218 212 214 216 210 214 219 220 222 226 221 222 221 220 220 219 218 215 214 206 203
261 269 279 261 256 247 227 259 255 256 249 244 247 241 248 250 248 253 255 258 264 258 244 245 236 225 224 218 215 203 203 201 206 214 219 219 219 226 224 223 226 222 222 222 221 221 219 213 208
255 250 274 275 272 271 265 247 261 310 241 240 236 239 242 245 244 244 248 255 253 248 242 243 230 224 224 219 219 214 203 205 205 215 219 219 220 224 223 221 228 225 224 226 225 224 221 221 217
253 257 253 282 269 266 248 200 285 271 243 248 225 350 284 260 253 243 245 241 242 243 237 235 228 226 221 216 217 214 211 211 209 215 210 218 215 215 219 226 228 228 227 228 227 228 229 222 222
233 224 245 249 231 253 211 206 233 37 33 71 81 56 54 49 90 144 178 183 200 218 221 216 217 213 212 207 207 208 212 220 221 219 215 211 213 216 220 227 230 229 230 230 228 227 230 229 226
273 209 212 237 225 283 192 203 91 317 90 85 68 69 63 59 60 78 93 105 115 141 166 182 188 195 199 204 206 214 215 220 223 221 227 224 215 223 234 231 233 235 231 231 232 231 231 231 232
333 217 222 239 274 279 232 215 72 63 64 72 77 68 62 61 62 68 86 91 94 99 113 125 140 168 185 196 207 213 215 215 216 222 220 219 220 234 240 238 239 236 237 234 231 230 230 232 234
250 308 193 185 226 241 262 40 37 61 94 60 76 62 57 56 59 72 73 80 84 87 92 100 106 104 114 139 179 193 207 210 217 219 219 222 219 234 236 236 234 234 244 243 237 236 233 232 234
338 7 322 191 127 199 132 37 353 49 40 66 68 72 62 52 46 63 76 77 76 76 79 82 89 91 94 98 105 127 156 201 216 213 211 212 221 226 227 231 237 233 248 249 247 243 240 235 236
294 334 311 347 6 85 116 91 345 35 48 71 75 63 61 56 41 37 66 70 71 70 68 68 72 76 76 84 94 100 114 126 143 171 195 215 225 227 228 230 241 242 248 253 244 245 243 239 238
Wind_Speed_850mb
10 7 4 3 7 9 9 15 6 14 9 8 11 11 14 8 9 9 17 23 19 18 17 24 29 46 60 68 69 69 70 64 61 60 58 54 50 46 46 48 45 42 38 35 32 29 28 28 28
12 10 4 6 9 4 11 10 18 16 18 43 24 13 7 14 20 13 30 29 23 15 10 14 23 47 66 74 74 72 69 65 62 61 59 55 51 48 49 49 47 43 39 35 31 31 32 33 34
13 10 6 7 9 14 13 14 20 9 13 33 13 19 12 9 28 12 32 32 25 15 9 11 19 46 73 80 77 73 68 64 63 62 60 58 54 52 51 48 47 44 41 38 34 35 37 37 37
8 7 4 4 18 16 16 13 4 20 43 20 24 11 14 15 10 26 32 30 19 12 6 6 15 45 77 84 80 75 68 64 64 63 62 59 56 55 53 50 47 44 42 41 40 39 41 41 36
13 4 4 8 20 14 11 46 9 12 11 33 34 30 10 17 28 31 36 29 16 6 4 13 12 47 80 86 81 76 69 64 64 63 62 60 58 56 54 51 48 45 43 44 44 43 45 41 36
9 4 1 14 26 17 14 54 12 25 35 44 21 26 16 30 37 36 36 28 17 4 9 9 14 54 80 87 82 77 70 65 63 62 62 61 59 56 54 52 49 46 45 46 46 45 45 39 32
9 4 11 10 8 22 28 20 24 28 24 25 41 10 10 29 43 40 36 28 17 11 6 8 20 59 77 86 83 78 71 65 64 62 62 61 58 56 53 51 48 48 47 47 47 48 44 37 30
11 6 9 12 21 50 45 25 44 23 18 36 21 7 9 45 51 45 38 32 21 18 13 7 20 59 75 86 85 79 73 67 63 62 61 60 58 56 52 50 50 49 49 48 48 48 44 35 30
10 6 35 27 28 41 7 7 17 19 34 38 39 41 40 33 55 54 49 44 36 35 27 20 18 57 73 82 84 79 73 68 64 63 60 59 59 57 54 50 50 50 50 49 49 49 44 39 30
17 11 38 29 31 26 26 22 32 20 28 29 58 60 32 19 65 61 59 55 49 42 35 33 36 54 72 80 83 79 74 71 69 68 66 64 62 58 54 50 49 49 51 51 51 51 48 42 36
17 50 53 46 40 50 50 45 55 38 39 54 44 63 36 35 55 57 51 47 41 42 40 41 42 62 77 86 87 84 81 78 76 73 71 68 65 65 61 54 53 52 53 55 55 58 54 46 39
29 59 61 68 62 56 37 58 39 51 60 76 82 80 74 49 56 57 58 48 48 42 43 45 50 59 75 86 92 93 90 88 85 81 79 77 75 72 67 60 55 54 55 57 58 60 58 51 43
41 49 70 75 73 75 67 60 68 93 75 85 101 77 71 68 72 70 63 57 54 52 48 51 57 60 72 85 94 98 97 94 92 88 86 83 82 75 69 65 61 61 59 59 61 62 62 58 51
17 51 62 69 71 69 52 62 60 98 71 89 96 84 73 70 71 65 55 59 62 55 55 57 62 66 74 81 94 101 102 100 97 95 94 89 84 82 80 75 72 68 63 62 61 63 65 63 56
58 45 49 59 49 46 43 62 76 75 56 79 83 73 72 72 70 69 64 60 58 63 64 68 70 74 81 83 89 102 107 106 105 103 99 95 92 90 86 82 81 76 64 61 64 65 66 66 62
33 32 38 35 35 36 44 63 107 49 66 85 90 86 84 98 95 94 89 81 78 77 79 79 83 86 85 89 95 103 109 111 110 108 106 100 99 96 93 91 90 81 71 64 67 67 70 70 69
35 51 56 67 60 17 39 62 90 57 56 63 86 88 87 89 91 98 93 97 86 76 84 85 85 94 100 94 99 102 109 113 112 109 108 105 104 102 99 97 94 85 73 73 71 73 73 75 75
51 40 39 59 75 38 66 63 74 47 41 64 71 67 58 66 73 82 87 93 87 88 84 82 86 97 103 101 106 104 101 105 111 109 110 108 107 105 102 100 97 89 84 80 76 77 76 76 77
63 59 62 60 42 37 73 49 73 56 55 51 66 63 68 70 72 92 97 107 101 94 95 89 93 98 103 114 105 106 102 99 104 109 106 107 105 105 102 104 101 95 93 87 82 79 79 80 81
68 79 79 57 54 41 49 54 72 58 58 66 70 84 73 76 75 96 101 95 87 75 83 84 85 95 100 109 112 111 109 106 102 104 104 107 103 107 104 105 107 102 97 92 90 86 88 88 89
57 71 68 68 45 56 53 65 77 65 56 71 78 83 84 80 76 89 86 82 79 65 68 79 87 94 97 104 108 99 97 91 95 100 103 102 106 107 102 104 103 103 102 101 98 96 96 99 95
67 58 54 72 63 59 51 43 69 50 48 47 50 72 82 83 82 92 93 88 83 65 60 76 89 93 96 107 111 103 100 91 93 100 101 102 107 104 101 104 103 100 103 103 100 99 100 99 102
80 46 42 37 42 28 28 26 50 12 46 46 39 58 84 100 87 85 79 72 74 72 63 67 90 91 99 110 112 112 102 98 90 98 95 103 100 92 100 105 102 100 99 103 102 100 102 101 104
57 54 45 43 29 33 34 8 31 26 23 26 25 13 15 30 43 72 72 74 67 67 65 70 76 86 97 102 110 113 110 100 93 93 96 97 98 96 107 101 104 102 99 102 100 94 92 100 103
33 28 22 27 19 27 24 22 32 14 32 21 27 32 44 47 27 21 24 24 31 37 49 59 69 78 84 87 92 100 92 87 88 91 89 94 92 95 103 99 104 105 103 106 103 95 94 96 99
29 39 21 26 9 6 14 16 3 15 30 47 47 47 55 58 54 63 59 55 49 46 50 62 64 76 73 79 91 93 87 85 85 82 78 84 88 85 95 100 105 108 102 104 104 102 101 97 101
12 18 35 35 50 13 6 7 12 36 27 30 35 49 53 50 52 62 71 75 73 72 64 59 54 56 61 74 84 85 86 84 85 87 89 79 65 66 95 101 101 106 105 108 111 114 108 105 103
15 13 12 14 11 16 10 5 8 16 23 23 34 33 42 43 47 63 72 75 72 71 68 65 60 57 51 43 47 60 81 81 80 81 84 78 73 85 91 90 91 103 102 106 113 115 111 110 108
8 10 12 4 7 7 5 4 12 15 15 19 26 40 44 50 44 53 67 71 70 68 68 65 63 55 50 44 44 36 33 46 74 75 73 80 82 78 78 80 89 86 79 98 108 112 112 113 111
8 15 7 9 6 5 4 5 6 9 13 15 24 46 60 56 55 44 63 68 72 70 67 65 58 58 55 47 40 37 38 35 38 42 44 54 67 66 67 72 88 86 92 80 95 106 115 118 115
Wind_Direction_850mb
250 266 279 304 48 67 267 258 258 279 307 267 204 180 198 199 164 213 164 170 178 181 189 186 190 199 199 191 189 185 181 176 170 167 167 164 161 157 153 150 147 144 141 139 136 133 133 133 135
256 266 239 125 108 147 255 232 232 225 250 319 278 239 219 226 194 193 182 186 185 201 199 220 211 199 198 192 189 185 182 178 175 171 169 167 164 161 157 154 150 146 141 140 138 138 135 135 135
265 264 261 145 158 209 219 215 235 249 288 301 279 256 244 202 204 219 193 200 189 200 219 226 228 204 195 191 188 185 183 181 178 174 171 169 167 165 161 158 153 149 144 143 141 143 139 140 136
248 237 234 148 223 252 211 239 194 330 314 299 294 274 239 211 214 197 191 194 203 206 241 321 267 202 190 188 187 185 184 182 179 175 171 170 169 167 164 161 157 152 148 145 146 147 144 143 137
230 230 227 255 253 261 255 258 287 273 273 287 290 256 224 215 191 191 192 196 195 196 349 353 258 192 184 186 186 185 184 183 180 176 173 172 171 169 166 165 160 155 152 151 149 149 150 150 143
232 171 169 243 245 260 264 259 265 254 278 282 291 246 224 196 199 197 193 187 166 109 16 352 215 187 183 185 187 186 184 183 181 179 176 174 173 172 170 168 163 158 156 155 153 152 154 157 150
181 108 228 233 256 268 251 258 228 252 268 274 298 242 268 199 201 196 186 183 172 140 58 13 200 185 183 187 187 186 186 184 184 183 180 177 176 175 173 171 167 162 160 158 158 156 160 163 159
217 139 256 219 242 268 265 251 253 245 269 284 292 259 240 216 194 185 185 181 181 169 154 84 190 185 184 188 189 188 188 187 186 186 184 182 180 178 177 175 170 165 161 161 162 162 165 168 165
208 227 253 232 226 237 122 262 252 253 264 274 277 285 295 281 196 188 186 186 186 181 172 158 176 189 188 189 191 191 191 191 189 190 189 186 185 183 182 179 173 167 164 165 166 168 170 177 173
183 221 250 224 234 250 259 263 277 277 276 278 281 275 279 259 197 192 191 191 192 192 186 179 180 192 192 190 192 193 193 194 194 194 193 193 191 188 187 182 176 171 167 169 170 173 178 186 181
209 235 241 251 249 250 261 269 261 268 269 266 265 274 263 242 209 209 210 221 242 215 199 193 190 193 196 194 194 196 196 197 198 198 198 197 196 193 192 187 179 176 173 172 174 177 186 191 190
253 249 254 258 257 260 258 269 263 250 256 269 271 267 270 240 226 221 223 233 232 234 231 209 200 197 201 201 199 199 199 200 201 201 202 201 201 199 196 194 185 185 182 179 179 182 187 193 196
232 250 254 261 262 263 269 261 263 257 259 266 268 264 261 257 243 238 237 237 240 227 228 228 214 205 202 206 207 204 204 204 204 204 206 206 206 205 202 201 198 196 190 186 184 184 189 195 200
222 249 258 265 268 268 264 269 259 258 250 258 262 260 255 256 254 247 226 226 226 225 224 229 227 219 209 207 211 212 210 209 208 208 209 209 210 209 207 204 204 201 196 190 190 189 190 197 203
242 254 265 256 258 255 266 275 246 261 254 252 255 255 254 249 247 245 248 247 244 239 243 229 231 226 217 213 213 215 215 214 212 211 212 211 212 213 211 209 211 207 202 197 194 192 190 198 202
261 246 253 265 231 245 202 256 268 239 237 245 248 250 254 259 257 261 258 257 257 259 250 248 240 228 225 219 216 215 216 217 216 216 215 214 216 215 213 214 214 210 204 202 200 197 193 197 201
233 251 245 262 235 234 200 243 264 245 236 243 246 248 246 247 249 257 259 260 261 260 264 257 245 233 224 220 219 218 218 219 218 218 217 217 217 218 216 217 217 214 209 207 206 200 199 196 200
246 246 246 249 257 224 243 241 257 244 221 242 250 251 241 244 251 257 257 260 264 265 261 256 254 238 226 222 219 218 217 218 218 218 221 219 220 219 217 218 220 216 212 211 209 206 201 200 202
250 255 256 249 252 229 250 240 251 244 239 247 254 245 250 253 259 262 262 266 267 256 252 253 252 237 225 218 210 214 212 212 217 222 222 219 222 222 217 219 220 218 216 215 214 209 205 199 203
253 254 255 260 261 232 250 251 253 249 241 242 245 254 251 254 254 260 264 265 264 254 244 253 253 236 225 220 216 219 217 218 220 220 218 220 219 225 221 218 219 219 217 217 216 214 207 204 205
271 250 260 257 255 253 246 257 255 250 248 246 249 250 253 251 253 257 261 264 262 254 246 247 247 231 225 221 218 212 214 216 210 214 219 220 222 226 221 222 221 220 220 219 218 215 214 206 203
261 269 279 261 256 247 227 259 255 256 249 244 247 241 248 250 248 253 255 258 264 258 244 245 236 225 224 218 215 203 203 201 206 214 219 219 219 226 224 223 226 222 222 222 221 221 219 213 208
255 250 274 275 272 271 265 247 261 310 241 240 236 239 242 245 244 244 248 255 253 248 242 243 230 224 224 219 219 214 203 205 205 215 219 219 220 224 223 221 228 225 224 226 225 224 221 221 217
253 257 253 282 269 266 248 200 285 271 243 248 225 350 284 260 253 243 245 241 242 243 237 235 228 226 221 216 217 214 211 211 209 215 210 218 215 215 219 226 228 228 227 228 227 228 229 222 222
233 224 245 249 231 253 211 206 233 37 33 71 81 56 54 49 90 144 178 183 200 218 221 216 217 213 212 207 207 208 212 220 221 219 215 211 213 216 220 227 230 229 230 230 228 227 230 229 226
273 209 212 237 225 283 192 203 91 317 90 85 68 69 63 59 60 78 93 105 115 141 166 182 188 195 199 204 206 214 215 220 223 221 227 224 215 223 234 231 233 235 231 231 232 231 231 231 232
333 217 222 239 274 279 232 215 72 63 64 72 77 68 62 61 62 68 86 91 94 99 113 125 140 168 185 196 207 213 215 215 216 222 220 219 220 234 240 238 239 236 237 234 231 230 230 232 234
250 308 193 185 226 241 262 40 37 61 94 60 76 62 57 56 59 72 73 80 84 87 92 100 106 104 114 139 179 193 207 210 217 219 219 222 219 234 236 236 234 234 244 243 237 236 233 232 234
338 7 322 191 127 199 132 37 353 49 40 66 68 72 62 52 46 63 76 77 76 76 79 82 89 91 94 98 105 127 156 201 216 213 211 212 221 226 227 231 237 233 248 249 247 243 240 235 236
294 334 311 347 6 85 116 91 345 35 48 71 75 63 61 56 41 37 66 70 71 70 68 68 72 76 76 84 94 100 114 126 143 171 195 215 225 227 228 230 241 242 248 253 244 245 243 239 238